Погода в Ярке

Россия / Тамбовская область     52°51′41″N   40°06′38″E
темп.,
°C
ветер,
м/с
пор.,
м/с
влажн.,
%
обл.,
%
осадки,
мм/ч
давл.,
гПа
погр.,
м
15 мая, сб
сб1500:00+18юв5138755 0.0 1010248
03:00+16юв369081 0.0 1010106
06:00+17ююв489488 0.8 1010216
09:00+20ю4885100 0.8 1011442
12:00+22ю477258 3.5 1012850
15:00+24ююз685387 3.5 10121817
18:00+21ююз486799 0.0 1012296
21:00+17юз34770 0.1 101347
16 мая, вс
вс1600:00+15юз22815 0.0 101420
03:00+14ююз22861 0.0 101517
06:00+15ю23864 0.0 101575
09:00+20ююз2365100 0.0 1015418
12:00+23ю23525 0.0 10151648
15:00+25ююв234721 0.0 10141853
18:00+24вюв1162100 0.0 101344
21:00+18всв337452 0.4 101436
17 мая, пн
пн1700:00+17всв3689100 0.0 101496
03:00+15в358672 0.0 101468
06:00+16в398245 0.0 1013211
09:00+21юв4764100 0.0 1013369
12:00+25юв6950100 0.0 1012656
15:00+26юв611535 0.0 10111196
18:00+24юв713621 0.0 1010641
21:00+20вюв6186983 0.0 1010428
18 мая, вт
вт1800:00+19юв6185748 0.0 1010476
03:00+16юв51363100 0.0 1009274
06:00+15юв4127364 0.0 1009267
09:00+20ююв6106323 0.0 1009476
12:00+24ююв685565 0.0 1009980
15:00+23ююв586097 0.0 1009531
18:00+22юв4865100 0.0 1008325
21:00+17юз3894100 3.7 1009251
19 мая, ср
ср1900:00+17ююв3591100 0.1 1008131
03:00+16юв3593100 0.8 100891
06:00+16ююв41089100 0.1 1007290
09:00+18ююз71183100 0.8 1008790
12:00+19ююз7976100 1.7 10091226
15:00+19ююз710656 2.3 10091450
18:00+18зюз477295 0.1 10101070
21:00+14зюз2383100 0.2 101154